Nellis AFB, NV

3:46 AM PDT on October 22, 2017 (GMT -0700)
Nellis Air Force Base

Weather History for KLSV - November, 2012

Change the Weather History Date:

Monday, November 5, 2012

  Actual Average Record
Temperature  
Mean Temperature 68 °F -  
Max Temperature 84 °F 68 °F 84 °F (2012)
Min Temperature 53 °F 45 °F 37 °F (2002)
Cooling Degree Days 4    
Growing Degree Days 18 (Base 50)    
Moisture  
Dew Point 32 °F    
Average Humidity 29    
Maximum Humidity 40    
Minimum Humidity 16    
Precipitation  
Precipitation 0.00 in - - ()
Sea Level Pressure  
Sea Level Pressure 30.18 in    
Wind  
Wind Speed 2 mph (North)    
Max Wind Speed 7 mph    
Max Gust Speed -    
Visibility 10 miles    
Events      
Averages and records for this station are not official NWS values.
T = Trace of Precipitation, MM = Missing Value Source: NWS Daily Summary

Daily Weather History Graph

Daily Weather History Graph

Search for Another Location

Airport or City:

Trip Planner

Search our weather history database for the weather conditions in past years. The results will help you decide how hot, cold, wet, or windy it might be!

Date:

Astronomy

Nov. 05, 2012 Rise Set
Actual Time 6:07 AM PST 4:39 PM PST
Civil Twilight 5:40 AM PST 5:06 PM PST
Nautical Twilight 5:10 AM PST 5:36 PM PST
Astronomical Twilight 4:39 AM PST 6:06 PM PST
Moon 10:20 PM PST (11/5) 11:29 AM PST (11/5)
Length of Visible Light 11h 25m
Length of Day
10h 31m
Waning Gibbous, 62% of the Moon is Illuminated
Nov 5
Waning Gibbous
Nov 6
Last Quarter
Nov 13
New
Nov 20
First Quarter
Nov 28
Full

Hourly Weather History & Observations

Time (PST) Temp. Dew Point Humidity Pressure Visibility Wind Dir Wind Speed Gust Speed Precip Events Conditions
12:55 AM 57.2 °F 29.5 °F 35% 30.22 in 10.0 mi Calm Calm - N/A   Clear
1:55 AM 54.7 °F 29.8 °F 39% 30.23 in 10.0 mi ENE 3.5 mph - N/A   Clear
2:55 AM 55.6 °F 29.3 °F 37% 30.22 in 10.0 mi Calm Calm - N/A   Clear
3:55 AM 53.2 °F 29.1 °F 40% 30.22 in 10.0 mi Calm Calm - N/A   Clear
4:55 AM 57.2 °F 29.5 °F 35% 30.22 in 10.0 mi ENE 5.8 mph - N/A   Clear
5:55 AM 55.2 °F 29.5 °F 37% 30.25 in 10.0 mi NW 3.5 mph - N/A   Clear
6:55 AM 54.5 °F 30.7 °F 40% 30.27 in 10.0 mi Variable 3.5 mph - N/A   Clear
7:55 AM 59.9 °F 32.7 °F 36% 30.28 in 10.0 mi Calm Calm - N/A   Clear
8:55 AM 69.6 °F 32.9 °F 26% 30.26 in 10.0 mi Calm Calm - N/A   Clear
9:56 AM 75.2 °F 33.8 °F 22% 30.24 in 10.0 mi SW 6.9 mph - N/A   Clear
10:55 AM 77.0 °F 32.0 °F 19% 30.22 in 10.0 mi Variable 1.2 mph - N/A   Clear
11:55 AM 80.6 °F 33.8 °F 18% 30.18 in 10.0 mi WNW 6.9 mph - N/A   Clear
12:55 PM 82.4 °F 33.8 °F 17% 30.15 in 10.0 mi Calm Calm - N/A   Clear
1:58 PM 82.0 °F 32.2 °F 16% 30.13 in 10.0 mi NE 4.6 mph - N/A   Clear
2:58 PM 84.0 °F 32.5 °F 16% 30.12 in 10.0 mi SW 2.3 mph - N/A   Clear
3:58 PM 82.4 °F 33.1 °F 17% 30.12 in 10.0 mi SSW 3.5 mph - N/A   Clear
4:58 PM 79.7 °F 33.3 °F 19% 30.11 in 10.0 mi SW 3.5 mph - N/A   Clear
5:58 PM 72.9 °F 34.3 °F 24% 30.12 in 10.0 mi ENE 4.6 mph - N/A   Clear
6:58 PM 66.9 °F 32.9 °F 28% 30.13 in 10.0 mi North 2.3 mph - N/A   Clear
7:58 PM 67.3 °F 34.0 °F 29% 30.14 in 10.0 mi Calm Calm - N/A   Clear
8:58 PM 61.3 °F 33.1 °F 35% 30.14 in 10.0 mi NE 3.5 mph - N/A   Clear
9:58 PM 62.6 °F 32.7 °F 33% 30.14 in 10.0 mi NE 6.9 mph - N/A   Clear
10:58 PM 65.3 °F 34.0 °F 31% 30.11 in 10.0 mi NNE 1.2 mph - N/A   Clear
11:58 PM 61.0 °F 34.7 °F 37% 30.11 in 10.0 mi NW 4.6 mph - N/A   Clear